timestamp,surface_pressure_avg,surface_temp_avg,battery_voltage,lat,long
2019-10-28 00:00:00+00:00,374.0762,9.69,12.89,47.84626,-54.09684
2019-10-28 00:10:00+00:00,373.4429,9.69,12.81,47.84626,-54.09684
2019-10-28 00:20:00+00:00,370.0464,9.69,12.89,47.84626,-54.09684
2019-10-28 00:30:00+00:00,363.3396,9.69,12.97,47.84626,-54.09684
2019-10-28 00:40:00+00:00,355.4796,9.68,12.97,47.84626,-54.09684
2019-10-28 00:50:00+00:00,347.3179,9.67,12.97,47.84626,-54.09684
2019-10-28 01:00:00+00:00,336.0296,9.66,12.89,47.84626,-54.09684
2019-10-28 01:10:00+00:00,327.0464,9.65,12.81,47.84626,-54.09684
2019-10-28 01:20:00+00:00,321.3013,9.64,12.89,47.84626,-54.09684
2019-10-28 01:30:00+00:00,314.798,9.64,12.89,47.84626,-54.09684
2019-10-28 01:40:00+00:00,307.1497,9.64,12.97,47.84626,-54.09684
2019-10-28 01:50:00+00:00,301.7681,9.63,12.97,47.84626,-54.09684
2019-10-28 02:00:00+00:00,293.8281,9.6,12.89,47.84626,-54.09684
2019-10-28 02:10:00+00:00,282.4897,9.6,12.81,47.84626,-54.09684
2019-10-28 02:20:00+00:00,268.0081,9.6,12.89,47.84626,-54.09684
2019-10-28 02:30:00+00:00,254.2514,9.6,12.89,47.84626,-54.09684
2019-10-28 02:40:00+00:00,240.8031,9.6,12.97,47.84626,-54.09684
2019-10-28 02:50:00+00:00,227.7765,9.6,12.97,47.84626,-54.09684
2019-10-28 03:00:00+00:00,218.6181,9.6,12.89,47.84626,-54.09684
2019-10-28 03:10:00+00:00,214.3181,9.6,12.81,47.84626,-54.09684
2019-10-28 03:20:00+00:00,209.9848,9.6,12.89,47.84626,-54.09684
2019-10-28 03:30:00+00:00,203.8581,9.6,12.89,47.84626,-54.09684
2019-10-28 03:40:00+00:00,199.3898,9.6,12.89,47.84626,-54.09684
2019-10-28 03:50:00+00:00,195.6265,9.55,12.97,47.84626,-54.09684
2019-10-28 04:00:00+00:00,192.3231,9.5,12.81,47.84626,-54.09684
2019-10-28 04:10:00+00:00,187.6831,9.5,12.81,47.84626,-54.09684
2019-10-28 04:20:00+00:00,182.3781,9.5,12.89,47.84626,-54.09684
2019-10-28 04:30:00+00:00,178.6515,9.5,12.89,47.84626,-54.09684
2019-10-28 04:40:00+00:00,177.1331,9.5,12.89,47.84626,-54.09684
2019-10-28 04:50:00+00:00,177.5648,9.55,12.89,47.84626,-54.09684
2019-10-28 05:00:00+00:00,175.2332,9.57,12.81,47.84626,-54.09684
2019-10-28 05:10:00+00:00,172.3798,9.57,12.73,47.84626,-54.09684
2019-10-28 05:20:00+00:00,173.1265,9.56,12.89,47.84626,-54.09684
2019-10-28 05:30:00+00:00,176.1731,9.56,12.89,47.84626,-54.09684
2019-10-28 05:40:00+00:00,178.6848,9.55,12.89,47.84626,-54.09684
2019-10-28 05:50:00+00:00,182.4348,9.53,12.89,47.84626,-54.09684
2019-10-28 06:00:00+00:00,187.4748,9.5,12.81,47.84626,-54.09684
2019-10-28 06:10:00+00:00,187.0965,9.5,12.73,47.84626,-54.09684
2019-10-28 06:20:00+00:00,187.4765,9.5,12.81,47.84626,-54.09684
2019-10-28 06:30:00+00:00,195.8998,9.5,12.81,47.84626,-54.09684
2019-10-28 06:40:00+00:00,205.7448,9.5,12.89,47.84626,-54.09684
2019-10-28 06:50:00+00:00,210.8948,9.49,12.89,47.84626,-54.09684
2019-10-28 07:00:00+00:00,217.0114,9.4,12.81,47.84626,-54.09684
2019-10-28 07:10:00+00:00,226.0581,9.4,12.73,47.84626,-54.09684
2019-10-28 07:20:00+00:00,230.4447,9.41,12.81,47.84626,-54.09684
2019-10-28 07:30:00+00:00,235.458,9.48,12.81,47.84626,-54.09684
2019-10-28 07:40:00+00:00,244.3564,9.46,12.89,47.84626,-54.09684
2019-10-28 07:50:00+00:00,253.5314,9.44,12.89,47.84626,-54.09684
2019-10-28 08:00:00+00:00,259.3314,9.47,12.81,47.84626,-54.09684
2019-10-28 08:10:00+00:00,262.8531,9.47,12.73,47.84626,-54.09684
2019-10-28 08:20:00+00:00,269.5381,9.47,12.81,47.84626,-54.09684
2019-10-28 08:30:00+00:00,277.1714,9.4,12.81,47.84626,-54.09684
2019-10-28 08:40:00+00:00,284.4131,9.5,12.89,47.84626,-54.09684
2019-10-28 08:50:00+00:00,291.2181,9.5,12.89,47.84626,-54.09684
2019-10-28 09:00:00+00:00,299.5397,9.5,12.81,47.84626,-54.09684
2019-10-28 09:10:00+00:00,309.5446,9.5,12.73,47.84626,-54.09684
2019-10-28 09:20:00+00:00,317.3196,9.5,12.81,47.84626,-54.09684
2019-10-28 09:30:00+00:00,325.9113,9.5,12.81,47.84626,-54.09684
2019-10-28 09:40:00+00:00,337.653,9.5,12.89,47.84626,-54.09684
2019-10-28 09:50:00+00:00,348.3229,9.5,12.89,47.84626,-54.09684
2019-10-28 10:00:00+00:00,358.2396,9.5,12.81,47.84626,-54.09684
2019-10-28 10:10:00+00:00,368.3963,9.5,12.73,47.84626,-54.09684
2019-10-28 10:20:00+00:00,377.4279,9.5,12.81,47.84626,-54.09684
2019-10-28 10:30:00+00:00,384.7111,9.5,12.81,47.84626,-54.09684
2019-10-28 10:40:00+00:00,386.2745,9.5,12.89,47.84626,-54.09684
2019-10-28 10:50:00+00:00,388.0496,9.5,12.97,47.84626,-54.09684
2019-10-28 11:00:00+00:00,392.403,9.49,12.97,47.84626,-54.09684
2019-10-28 11:10:00+00:00,392.1328,9.48,12.97,47.84626,-54.09684
2019-10-28 11:20:00+00:00,391.8929,9.46,13.13,47.84626,-54.09684
2019-10-28 11:30:00+00:00,395.7396,9.44,13.29,47.84626,-54.09684
2019-10-28 11:40:00+00:00,396.7296,9.4,13.53,47.84626,-54.09684
2019-10-28 11:50:00+00:00,398.3929,9.4,13.68,47.84626,-54.09684
2019-10-28 12:00:00+00:00,395.7479,9.4,13.53,47.84626,-54.09684
2019-10-28 12:10:00+00:00,388.5212,9.4,13.37,47.84626,-54.09684
2019-10-28 12:20:00+00:00,383.1763,9.4,15.83,47.84626,-54.09684
2019-10-28 12:30:00+00:00,382.9713,9.4,16.23,47.84626,-54.09684
2019-10-28 12:40:00+00:00,380.5229,9.4,16.95,47.84626,-54.09684
2019-10-28 12:50:00+00:00,371.5746,9.4,14.48,47.84626,-54.09684
2019-10-28 13:00:00+00:00,370.5613,9.4,14.32,47.84626,-54.09684
2019-10-28 13:10:00+00:00,371.2196,9.4,14.4,47.84626,-54.09684
2019-10-28 13:20:00+00:00,362.3696,9.41,14.32,47.84626,-54.09684
2019-10-28 13:30:00+00:00,352.6279,9.4,14.4,47.84626,-54.09684
2019-10-28 13:40:00+00:00,345.1596,9.4,14.48,47.84626,-54.09684
2019-10-28 13:50:00+00:00,338.6213,9.4,14.48,47.84626,-54.09684
2019-10-28 14:00:00+00:00,325.348,9.4,14.32,47.84626,-54.09684
2019-10-28 14:10:00+00:00,310.2546,9.4,14.4,47.84626,-54.09684
2019-10-28 14:20:00+00:00,300.573,9.4,14.56,47.84626,-54.09684
2019-10-28 14:30:00+00:00,286.7781,9.4,14.64,47.84626,-54.09684
2019-10-28 14:40:00+00:00,268.9914,9.4,14.64,47.84626,-54.09684
2019-10-28 14:50:00+00:00,259.1214,9.4,14.56,47.84626,-54.09684
2019-10-28 15:00:00+00:00,256.7848,9.4,14.64,47.84626,-54.09684
2019-10-28 15:10:00+00:00,247.9531,9.4,14.48,47.84626,-54.09684
2019-10-28 15:20:00+00:00,230.8064,9.4,14.8,47.84626,-54.09684
2019-10-28 15:30:00+00:00,219.1281,9.4,16.63,47.84626,-54.09684
2019-10-28 15:40:00+00:00,211.6114,9.4,16.15,47.84626,-54.09684
2019-10-28 15:50:00+00:00,201.5365,9.4,14.64,47.84626,-54.09684
2019-10-28 16:00:00+00:00,191.7682,9.4,14.56,47.84626,-54.09684
2019-10-28 16:10:00+00:00,187.6164,9.4,15.11,47.84626,-54.09684
2019-10-28 16:20:00+00:00,183.6431,9.4,14.88,47.84626,-54.09684
2019-10-28 16:30:00+00:00,176.7948,9.4,14.48,47.84626,-54.09684
2019-10-28 16:40:00+00:00,174.2015,9.4,14.48,47.84626,-54.09684
2019-10-28 16:50:00+00:00,172.3465,9.4,14.64,47.84626,-54.09684
2019-10-28 17:00:00+00:00,169.3798,9.4,14.48,47.84626,-54.09684
2019-10-28 17:10:00+00:00,170.0981,9.4,14.24,47.84626,-54.09684
2019-10-28 17:20:00+00:00,167.9832,9.4,14.72,47.84626,-54.09684
2019-10-28 17:30:00+00:00,164.3748,9.4,14.56,47.84626,-54.09684
2019-10-28 17:40:00+00:00,167.6332,9.38,14.56,47.84626,-54.09684
2019-10-28 17:50:00+00:00,170.3882,9.38,14.48,47.84626,-54.09684
2019-10-28 18:00:00+00:00,168.5648,9.36,14.56,47.84626,-54.09684
2019-10-28 18:10:00+00:00,171.6615,9.35,14.48,47.84626,-54.09684
2019-10-28 18:20:00+00:00,176.2614,9.36,14.64,47.84626,-54.09684
2019-10-28 18:30:00+00:00,175.8665,9.3,14.48,47.84626,-54.09684
2019-10-28 18:40:00+00:00,179.2565,9.3,14.48,47.84626,-54.09684
2019-10-28 18:50:00+00:00,186.5631,9.36,14.32,47.84626,-54.09684
2019-10-28 19:00:00+00:00,190.0948,9.4,14.32,47.84626,-54.09684
2019-10-28 19:10:00+00:00,191.6014,9.4,14.16,47.84626,-54.09684
2019-10-28 19:20:00+00:00,200.1931,9.4,14.24,47.84626,-54.09684
2019-10-28 19:30:00+00:00,207.4531,9.4,14.08,47.84626,-54.09684
2019-10-28 19:40:00+00:00,209.6081,9.4,14.08,47.84626,-54.09684
2019-10-28 19:50:00+00:00,214.4398,9.3,14.0,47.84626,-54.09684
2019-10-28 20:00:00+00:00,220.4915,9.3,13.92,47.84626,-54.09684
2019-10-28 20:10:00+00:00,223.9731,9.34,13.76,47.84626,-54.09684
2019-10-28 20:20:00+00:00,227.0381,9.3,13.68,47.84626,-54.09684
2019-10-28 20:30:00+00:00,234.6881,9.3,13.68,47.84626,-54.09684
2019-10-28 20:40:00+00:00,243.6314,9.3,13.6,47.84626,-54.09684
2019-10-28 20:50:00+00:00,251.3464,9.3,13.6,47.84626,-54.09684
2019-10-28 21:00:00+00:00,259.0731,9.3,13.44,47.84626,-54.09684
2019-10-28 21:10:00+00:00,269.7114,9.3,13.29,47.84626,-54.09684
2019-10-28 21:20:00+00:00,280.8231,9.27,13.29,47.84626,-54.09684
2019-10-28 21:30:00+00:00,290.0114,9.2,13.29,47.84626,-54.09684
2019-10-28 21:40:00+00:00,299.7247,9.23,13.29,47.84626,-54.09684
2019-10-28 21:50:00+00:00,310.3497,9.3,13.21,47.84626,-54.09684
2019-10-28 22:00:00+00:00,319.548,9.2,13.13,47.84626,-54.09684
2019-10-28 22:10:00+00:00,330.288,9.2,12.97,47.84626,-54.09684
2019-10-28 22:20:00+00:00,338.0464,9.24,13.05,47.84626,-54.09684
2019-10-28 22:30:00+00:00,344.8913,9.28,12.97,47.84626,-54.09684
2019-10-28 22:40:00+00:00,351.9763,9.25,12.97,47.84626,-54.09684
2019-10-28 22:50:00+00:00,361.423,9.2,12.97,47.84626,-54.09684
2019-10-28 23:00:00+00:00,370.4929,9.2,12.97,47.84626,-54.09684
2019-10-28 23:10:00+00:00,374.3746,9.2,12.81,47.84626,-54.09684
2019-10-28 23:20:00+00:00,376.918,9.2,12.97,47.84626,-54.09684
2019-10-28 23:30:00+00:00,377.5496,9.2,12.97,47.84626,-54.09684
2019-10-28 23:40:00+00:00,377.7346,9.2,12.97,47.84626,-54.09684
2019-10-28 23:50:00+00:00,378.9046,9.2,12.97,47.84626,-54.09684
